Location: Angers
(47.4670°N, 0.5500°W)
Time: 03:45:29
(UTC+01:00)

ISS - Visible Passes

Search period start: 15 December 2025 00:00
Search period end: 25 December 2025 00:00
Orbit: 416 x 420 km, 51.6° (Epoch: 14 December)

Date Brightness Start Highest point End Pass type
(mag) Time Alt. Az. Time Alt. Az. Time Alt. Az.
15 Dec -2.6 07:12:34 10° SW 07:15:47 43° SSE 07:19:00 10° ENE visible
16 Dec -1.9 06:26:42 23° S 06:27:51 28° SE 06:30:49 10° E visible
16 Dec -3.7 08:01:05 10° WSW 08:04:27 65° NNW 08:07:49 10° ENE visible
17 Dec -0.7 05:41:17 15° ESE 05:41:17 15° ESE 05:42:24 10° E visible
17 Dec -3.8 07:14:14 21° WSW 07:16:23 88° NNW 07:19:46 10° ENE visible
18 Dec -3.3 06:28:35 61° ESE 06:28:35 61° ESE 06:31:41 10° ENE visible
18 Dec -3.2 08:01:58 10° W 08:05:13 44° N 08:08:29 10° ENE visible
19 Dec -0.7 05:42:44 15° E 05:42:44 15° E 05:43:30 10° ENE visible
19 Dec -3.5 07:15:40 30° WNW 07:17:02 52° NNW 07:20:21 10° ENE visible
20 Dec -2.9 06:29:41 45° NE 06:29:41 45° NE 06:32:14 10° ENE visible
20 Dec -3.0 08:02:46 10° WNW 08:05:58 38° N 08:09:10 10° ENE visible
21 Dec -0.6 05:43:36 13° ENE 05:43:36 13° ENE 05:44:05 10° ENE visible
21 Dec -3.1 07:16:31 29° NW 07:17:42 40° N 07:20:55 10° ENE visible
22 Dec -2.5 06:30:21 34° NNE 06:30:21 34° NNE 06:32:42 10° ENE visible
22 Dec -3.1 08:03:21 10° WNW 08:06:37 44° N 08:09:51 10° E visible
23 Dec -0.5 05:44:07 12° ENE 05:44:07 12° ENE 05:44:29 10° ENE visible
23 Dec -3.0 07:17:02 27° NW 07:18:19 39° N 07:21:31 10° ENE visible
24 Dec -2.4 06:30:45 33° NNE 06:30:45 33° NNE 06:33:11 10° ENE visible
24 Dec -3.6 08:03:43 10° WNW 08:07:05 65° NNE 08:10:26 10° ESE visible
